This is the latest recevied weather packets stored in our database for station/object AD8IZ-13. If no packets are shown the sender has not sent any weather packets the latest 10 day(s).
| Time | Temp. | Humidity | Pressure | Rain* | Wind** | Luminosity | Snow |
|---|---|---|---|---|---|---|---|
| 1787501119 | 23.33° C | 62% | 1015.7 hPa | 0 mm | - | 805 W/m² | - |
| 1787500522 | 23.33° C | 64% | 1015.7 hPa | 0 mm | - | 793 W/m² | - |
| 1787499921 | 22.78° C | 65% | 1015.9 hPa | 0 mm | - | 745 W/m² | - |
| 1787499319 | 22.22° C | 66% | 1015.9 hPa | 0 mm | - | 738 W/m² | - |
| 1787498720 | 22.22° C | 67% | 1016.1 hPa | 0 mm | - | 725 W/m² | - |
| 1787498118 | 21.67° C | 68% | 1016 hPa | 0 mm | - | 701 W/m² | - |
| 1787497518 | 21.11° C | 72% | 1016.1 hPa | 0 mm | - | 680 W/m² | - |
| 1787496920 | 21.11° C | 73% | 1016.2 hPa | 0 mm | - | 656 W/m² | - |
| 1787496319 | 20.56° C | 74% | 1016.3 hPa | 0 mm | - | 609 W/m² | - |
| 1787495717 | 20° C | 75% | 1016.2 hPa | 0 mm | - | 582 W/m² | - |
| 1787495117 | 20° C | 77% | 1016.1 hPa | 0 mm | - | 457 W/m² | - |
| 1787494519 | 20° C | 79% | 1016.1 hPa | 0 mm | - | 108 W/m² | - |
| 1787493921 | 19.44° C | 81% | 1016.1 hPa | 0 mm | - | 72 W/m² | - |
| 1787493321 | 19.44° C | 84% | 1016 hPa | 0 mm | - | 77 W/m² | - |
| 1787492725 | 18.89° C | 83% | 1016.1 hPa | 0 mm | - | 67 W/m² | - |
| 1787492118 | 18.33° C | 85% | 1016.1 hPa | 0 mm | - | 71 W/m² | - |
| 1787491521 | 18.33° C | 87% | 1016 hPa | 0 mm | - | 64 W/m² | - |
| 1787490922 | 17.78° C | 88% | 1015.9 hPa | 0 mm | - | 63 W/m² | - |
| 1787490321 | 17.78° C | 89% | 1015.9 hPa | 0 mm | - | 61 W/m² | - |
| 1787489728 | 17.22° C | 91% | 1015.8 hPa | 0 mm | - | 59 W/m² | - |
| 1787489122 | 17.22° C | 92% | 1015.9 hPa | 0 mm | - | 64 W/m² | - |
| 1787488522 | 16.67° C | 93% | 1015.9 hPa | 0 mm | - | 53 W/m² | - |
| 1787487923 | 16.67° C | 93% | 1015.8 hPa | 0 mm | - | 45 W/m² | - |
| 1787487323 | 16.67° C | 94% | 1015.6 hPa | 0 mm | - | 42 W/m² | - |
| 1787486724 | 16.11° C | 95% | 1015.4 hPa | 0 mm | - | 38 W/m² | - |
* Rain latest hour (hover to see other rain measurements)
** Current wind speed in m/s (hover to see current wind gust speed)